Location: Alsip
(41.6689°N, 87.7387°W)
Time: 14:29:14
(UTC+00:00)

ARIANE 5 R/B - Pass Details

Date: 14 July 2020
Orbit: 749 x 794 km, 98.6° (Epoch: 04 August)

Event Time Altitude Azimuth Distance (km) Brightness Sun altitude
Rises 07:54:03 0° 24° (NNE) 3,238 7.3 -21.2°
Reaches altitude 10° 07:56:37 10° 35° (NE) 2,315 6.2 -20.9°
Maximum altitude 08:01:07 31° 96° (E) 1,343 4.0 -20.5°
Enters shadow 08:04:30 16° 150° (SSE) 1,960 4.3 -20.2°
